Regional Weather Roundup
Issued by NWS

Home | Current Version | Previous Version | Text Only | Print | Product List | Glossary Off
Versions: 1 2 3 4 5 6 7 8 9 10 11 12 13 14 15 16 17 18 19 20 21 22 23 24 25 26 27 28 29 30 31 32 33 34 35 36 37 38 39 40 41 42 43 44 45 46 47 48 49 50

000
ASUS43 KIND 222209
RWRIN

WEATHER ROUNDUP FOR INDIANA
NATIONAL WEATHER SERVICE INDIANAPOLIS IN
500 PM EST WED NOV 22 2017

NOTE: "FAIR" INDICATES FEW OR NO CLOUDS BELOW 12,000 FEET WITH NO
SIGNIFICANT WEATHER AND/OR OBSTRUCTIONS TO VISIBILITY.

* - STATION DOES NOT REPORT WEATHER SUCH AS PRECIPITATION OR FOG.

+ - STATION NOT QUALITY CONTROLLED BY THE NATIONAL WEATHER SERVICE.
    USE DATA WITH CAUTION...ESPECIALLY DEWPOINT AND RELATIVE
    HUMIDITY OBSERVATIONS.

INZ001>003-010>013-019-020-222300-
NORTHWEST INDIANA

CITY           SKY/WX    TMP DP  RH WIND       PRES   REMARKS
GARY /AIRPORT/ MOCLDY    36  10  35 W8        30.28S WCI  29
KNOX *+        CLEAR     34  21  60 W3        30.27R
MICHIGAN CITY+ CLEAR     32  23  69 CALM      30.28R
VALPARAISO     CLEAR     35  16  45 SW6       30.27R WCI  30

$$

LMZ046-743>745-222300-
SOUTHERN LAKE MICHIGAN

STATION/POSITION TIME  TEMP    WIND        PRES    WAVE
                       AIR SEA DIR/SP/G            HT
                 (UTC) (F)     (DEG/KT/KT) (MB)    (FT)
BURNS HARBOR     2140   35     280/  5/  8 1025.4S
MICHIGAN CITY    2130   33     260/  6/  7   N/A

$$

INZ004-005-014>016-021>024-222300-
NORTH CENTRAL INDIANA

CITY           SKY/WX    TMP DP  RH WIND       PRES   REMARKS
ELKHART        PTCLDY    36  21  55 W6        30.26R WCI  31
GOSHEN         PTCLDY    34  19  54 CALM      30.26R
LOGANSPORT +   PTCLDY    32  23  69 W3        30.28S
PERU/GRISSOM   CLEAR     34  23  65 W6        30.26S WCI  29
ROCHESTER +    PTCLDY    36  23  60 SW3       30.27S
SOUTH BEND     NOT AVBL
WARSAW +       PTCLDY    32  21  64 W3        30.26S

$$

INZ006>009-017-018-025>027-222300-
NORTHEAST INDIANA

CITY           SKY/WX    TMP DP  RH WIND       PRES   REMARKS
FORT WAYNE     NOT AVBL
HUNTINGTON +   PTCLDY    33  20  59 SW3       30.27S
KENDALLVILLE + CLEAR     32  21  63 CALM      30.26R

$$

INZ028-029-035-036-043>045-051>053-222300-
WEST CENTRAL INDIANA

CITY           SKY/WX    TMP DP  RH WIND       PRES   REMARKS
CRAWFORDSVL +  CLEAR     33  22  64 CALM      30.24S
GREENCASTLE +  CLEAR     34  21  60 N3        30.29R
LAFAYETTE      CLEAR     34  21  59 CALM      30.29R
TERRE HAUTE    CLEAR     38  21  50 CALM      30.29S

$$

INZ030>032-037>040-046>048-054>057-064-065-222300-
CENTRAL INDIANA

CITY           SKY/WX    TMP DP  RH WIND       PRES   REMARKS
CP ATTERBURY + CLEAR     36  23  60 N6        30.28S WCI  31
FISHERS *+     CLEAR     34  25  69 CALM      30.28S
GREENWOOD *+   CLEAR     40  24  53 NW5       30.28R WCI  36
INDIANAPOLIS   PTCLDY    36  23  59 N7        30.28R WCI  30
-EAGLE CREEK   CLEAR     36  22  56 NW6       30.27R WCI  31
MARION +       CLEAR     34  24  67 NW3       30.28S HAZE
SHELBYVILLE    CLEAR     39  20  46 CALM      30.27S
ZIONSVILLE +   CLEAR     33  23  67 NW5       30.28S WCI  29

$$

INZ033-034-041-042-049-050-058-059-222300-
EAST CENTRAL INDIANA

CITY           SKY/WX    TMP DP  RH WIND       PRES   REMARKS
MUNCIE         CLOUDY    37  23  56 NW7       30.27R WCI  32
RICHMOND +     MOCLDY    34  23  64 N6        30.26S WCI  29

$$

INZ060-061-067>069-081>083-085>088-222300-
SOUTHWEST INDIANA

CITY           SKY/WX    TMP DP  RH WIND       PRES   REMARKS
EVANSVILLE     CLEAR     39  23  52 N6        30.29S WCI  35
WASHINGTON +   CLEAR     38  20  49 N5        30.28F WCI  34

$$

INZ062-063-066-070>080-084-089>092-222300-
SOUTH CENTRAL AND SOUTHEAST INDIANA

CITY           SKY/WX    TMP DP  RH WIND       PRES   REMARKS
BEDFORD +      CLEAR     39  19  45 N3        30.26S
BLOOMINGTON    CLEAR     38  21  50 N6        30.26F WCI  33
MADISON *+     CLEAR     37  23  56 N3        30.28S
NORTH VERNON + CLEAR     36  23  60 N5        30.28S WCI  32
SEYMOUR +      CLEAR     39  23  52 NE7       30.28S WCI  34

$$




USA.gov is the U.S. government's official web portal to all federal, state and local government web resources and services.